Theta_e
320 320 321 320 321 324 324 325 321 318 320 311 313 316 314 319 319 321 319 319 321 319 319 319 319 317 319 319 318 318 318 319 318 318 318 325 329 327 332 328 325 336 342 344 345 345 344 343 344 345 344 344 344 344 344 344 342 341 341 340 339 338 337 337 340 340 340 340 340 340 339 339 339 339 338 339 338 338 339 339 338 339 338 338 337 336 335 334 330 329 329 328 328 327 326 326 325
320 321 323 322 323 326 325 325 318 313 314 309 313 316 315 319 319 319 319 319 320 318 318 318 319 318 319 319 318 319 318 319 318 319 322 325 329 330 328 325 331 339 342 343 345 345 345 344 344 344 344 344 344 344 345 344 343 341 340 340 339 339 337 336 339 340 339 340 340 340 340 339 338 338 337 337 337 337 339 338 338 338 338 338 338 337 338 337 333 332 331 331 331 329 327 326 325
319 320 322 324 325 325 325 323 316 310 310 309 312 316 318 319 318 318 318 318 319 318 319 318 319 318 319 320 318 318 318 318 318 320 322 325 328 333 331 325 328 337 343 344 344 345 346 345 344 344 344 344 344 344 345 345 343 341 340 340 339 339 338 336 338 339 339 339 340 339 339 338 338 338 335 336 337 337 337 337 337 338 338 338 338 338 338 337 336 334 333 331 330 329 327 326 324
320 320 320 324 325 323 323 321 317 311 309 309 310 316 319 318 317 318 318 318 318 318 319 319 319 318 319 319 319 319 318 318 319 321 323 330 330 330 330 324 327 336 342 344 343 343 345 345 344 344 344 344 344 344 345 345 344 342 341 340 339 339 339 337 337 339 339 339 339 338 338 338 338 337 334 334 335 336 336 336 337 337 337 338 338 338 338 337 336 333 331 329 328 327 324 323 320
322 323 321 324 327 323 322 321 317 313 310 311 311 315 318 316 317 317 318 319 319 318 318 319 318 317 318 318 319 319 318 319 321 323 327 332 329 327 328 327 333 338 340 344 344 342 345 345 344 344 344 344 343 344 345 345 344 342 341 340 340 339 339 338 336 338 339 338 338 338 338 337 336 335 334 333 333 334 335 335 336 337 336 337 337 337 336 336 336 333 331 329 327 325 321 319 318
323 324 322 323 325 322 321 315 314 314 315 317 314 315 317 316 317 317 317 318 318 318 317 318 318 318 318 317 318 318 319 319 321 327 332 332 326 325 330 333 338 338 338 344 343 342 345 345 344 344 344 344 344 343 344 345 344 343 341 341 341 340 339 339 337 335 338 339 337 336 336 335 335 335 335 332 331 332 333 333 334 335 335 337 337 336 335 335 335 333 330 328 326 323 321 319 318
321 323 324 324 323 323 321 314 313 314 317 320 317 317 317 316 317 317 317 317 317 317 317 317 317 317 317 317 317 319 321 320 323 330 333 331 326 326 330 336 340 337 339 342 343 343 344 344 343 343 344 343 344 343 343 344 344 343 342 341 341 340 339 339 338 334 335 338 337 336 334 333 334 333 334 332 330 330 330 332 332 333 334 335 335 335 336 335 333 330 327 325 324 322 321 318 318
321 323 324 325 323 322 320 315 316 317 316 318 318 318 317 317 317 317 317 316 316 316 316 317 317 317 316 317 318 320 320 323 327 329 332 331 326 325 327 335 340 339 340 342 342 342 343 343 342 343 343 342 343 343 343 343 343 343 342 342 340 340 340 339 339 336 334 336 337 337 334 333 333 331 332 332 331 330 329 331 331 332 334 334 335 335 334 333 331 328 326 324 322 321 320 318 317
322 322 323 325 321 318 317 316 318 318 318 317 317 317 316 317 317 317 317 316 316 316 316 316 317 316 316 318 318 319 318 322 327 327 331 330 326 326 324 329 335 338 339 341 341 340 342 341 342 343 342 342 342 343 343 343 342 342 342 342 341 340 340 339 339 338 336 336 337 337 336 334 333 332 333 333 331 331 329 330 332 332 334 334 335 335 332 331 330 328 326 325 323 321 320 317 316
322 321 323 324 318 314 313 315 317 318 318 318 317 317 316 316 317 317 317 317 316 316 316 316 317 316 316 318 318 318 317 319 324 327 331 330 327 330 330 326 329 335 336 338 340 339 339 339 341 343 342 342 341 342 343 343 342 342 342 342 341 340 340 339 338 338 337 337 337 337 337 335 334 333 335 335 332 331 330 331 333 334 335 334 334 334 330 329 329 328 327 326 323 322 320 318 316
321 320 322 320 314 311 311 314 317 319 318 317 317 316 316 316 316 317 317 317 316 316 316 316 317 316 315 317 317 316 315 317 322 326 330 331 329 331 333 329 326 331 332 333 336 337 338 339 340 342 342 341 341 341 342 342 342 342 341 341 341 340 340 339 338 338 338 338 337 337 337 335 335 334 335 337 334 332 332 333 333 334 334 333 333 332 330 329 329 328 328 326 324 323 321 318 315
320 318 320 317 314 313 314 315 317 319 318 317 317 316 316 315 317 317 317 317 316 316 316 316 316 316 316 316 317 316 314 313 318 324 329 332 331 331 333 331 328 329 331 331 333 335 337 337 339 340 341 340 340 340 341 341 342 342 341 340 340 340 339 340 338 338 337 337 337 337 337 336 336 336 336 337 336 334 334 334 334 335 333 332 332 331 330 330 329 329 328 327 324 323 322 320 316
320 318 318 316 317 318 316 317 318 319 318 318 317 316 315 315 317 316 317 317 316 316 316 315 315 316 317 316 316 316 314 312 314 321 327 331 330 330 332 331 329 329 332 334 334 335 336 337 338 339 339 340 340 339 340 340 340 340 341 340 340 340 339 339 338 338 337 336 336 337 337 336 335 336 336 337 337 336 335 335 335 335 333 331 331 331 331 330 330 329 328 328 325 322 323 322 318
321 319 318 317 318 318 317 317 318 317 316 318 317 316 316 315 316 315 316 317 316 316 315 315 315 315 316 316 316 315 314 311 312 317 324 329 326 327 329 328 328 329 331 332 334 335 335 335 337 338 339 339 339 339 339 339 339 339 340 341 340 340 339 339 338 337 336 336 336 336 336 335 335 335 336 336 337 337 336 335 335 335 333 332 331 332 332 330 330 329 328 328 325 322 322 323 320
322 318 319 318 316 316 317 319 318 315 316 318 317 316 316 315 315 315 316 316 316 316 315 315 315 315 315 316 316 315 312 311 311 315 321 326 324 322 323 324 324 326 327 328 328 331 333 334 336 337 337 338 339 339 339 338 337 337 338 339 339 339 339 339 339 338 337 336 335 335 335 335 334 334 335 335 336 336 336 335 335 335 334 333 332 332 331 330 330 329 328 328 325 321 320 321 321
320 319 319 316 313 314 316 319 318 315 317 318 316 315 316 316 315 315 315 315 316 316 315 315 314 314 315 314 314 312 311 311 311 314 318 322 322 319 319 319 320 322 323 323 323 326 329 331 334 335 336 337 338 339 340 340 338 337 336 337 339 339 338 339 339 338 338 337 335 334 334 334 334 334 334 335 335 335 335 335 335 335 334 333 333 332 331 330 330 329 328 327 326 322 319 318 320
319 321 318 313 313 313 315 318 317 316 317 318 316 316 317 316 316 315 315 314 315 316 315 314 314 313 313 312 311 310 311 312 312 315 317 318 319 318 317 317 318 318 319 320 319 322 324 326 330 333 335 336 337 338 339 340 340 339 337 337 338 337 337 337 338 338 337 336 336 334 333 333 334 334 334 334 335 335 334 335 334 334 334 334 333 332 331 330 329 329 328 327 326 323 319 317 318
321 321 316 313 314 314 316 318 317 318 319 317 316 316 317 317 316 315 314 315 315 316 314 313 313 312 311 311 310 311 311 312 313 315 316 317 317 317 317 317 317 317 317 318 317 317 319 321 325 328 331 334 335 337 338 338 339 339 338 338 338 337 337 336 336 337 336 336 336 334 333 334 336 336 336 335 335 334 334 334 334 334 334 333 333 333 331 330 329 329 328 327 326 323 320 321 320
321 320 315 315 316 316 318 318 318 318 318 317 316 315 315 316 317 315 315 316 316 316 315 313 313 313 312 311 311 311 311 312 313 314 315 316 316 316 316 316 317 317 317 317 317 316 315 317 319 322 328 332 333 335 337 337 337 337 338 338 338 338 337 337 336 336 337 338 336 334 333 336 337 337 336 335 334 334 333 333 333 333 333 333 333 332 331 329 329 329 328 327 326 324 323 323 321
320 320 318 317 317 316 316 317 317 317 317 317 316 315 315 316 315 315 315 316 317 316 315 314 315 314 312 311 311 311 311 312 313 314 314 315 315 314 315 315 316 316 316 316 317 316 315 315 316 317 323 329 332 334 335 336 336 336 337 338 338 338 338 338 338 338 338 338 337 335 335 337 337 337 336 334 333 333 334 333 333 332 333 333 331 331 331 330 330 329 329 328 327 326 325 324 322
319 319 319 317 316 316 315 316 316 316 316 316 316 315 315 315 315 314 315 316 317 316 313 313 313 313 311 310 310 311 311 312 312 313 313 314 314 314 313 314 314 315 315 316 316 315 315 316 315 315 316 323 331 333 334 336 336 336 336 337 337 337 337 338 337 337 338 338 337 337 337 337 336 336 336 335 334 334 335 335 334 333 332 333 331 330 331 330 330 330 329 329 328 327 325 324 322
319 318 318 316 316 317 316 316 316 315 315 315 315 315 315 315 314 315 315 316 317 314 311 311 310 310 309 309 310 311 311 311 311 312 312 313 313 313 313 313 313 314 315 315 314 315 316 316 316 316 314 318 328 331 333 335 335 336 336 337 336 336 336 336 336 336 337 337 336 337 336 336 336 335 335 336 336 335 335 334 334 334 333 334 332 331 332 331 331 330 330 329 328 327 326 325 323
319 317 317 317 316 317 316 316 315 314 314 315 315 315 315 314 315 315 314 315 313 309 309 309 308 308 308 309 309 310 310 311 311 310 311 312 312 312 312 312 312 313 314 314 314 315 316 315 315 318 315 317 326 330 331 333 335 335 335 336 336 336 335 335 336 335 336 335 335 335 335 334 335 335 335 335 335 335 334 333 333 333 333 333 332 332 331 331 330 330 330 329 328 327 326 325 324
318 318 317 317 316 316 316 315 314 314 314 314 314 314 313 314 315 314 313 312 309 308 308 308 308 308 308 309 309 309 310 310 310 309 310 311 310 311 312 311 311 312 313 314 314 315 316 314 316 319 318 321 327 329 330 332 333 335 335 335 335 335 334 334 334 334 334 334 333 334 334 334 333 335 335 335 334 334 333 333 333 332 332 332 331 331 331 330 330 330 330 330 328 328 326 325 324
318 318 317 316 315 315 315 315 314 313 314 314 313 313 314 315 314 313 312 311 308 308 308 308 308 308 308 308 307 309 309 309 309 309 310 310 310 311 311 311 311 311 312 313 314 316 317 316 318 320 321 324 328 328 330 331 333 334 334 334 334 334 333 332 332 333 333 332 331 331 332 333 332 333 333 333 333 334 333 333 333 332 332 331 330 330 330 330 330 330 330 329 328 327 327 325 323
317 317 316 316 315 315 315 314 314 314 314 313 313 314 315 313 313 313 311 310 308 307 307 307 308 308 307 307 307 308 308 308 308 309 309 310 310 310 311 310 310 310 312 313 314 316 318 318 320 322 323 326 328 329 330 332 333 332 332 333 332 332 331 331 331 331 331 330 330 330 331 332 332 331 332 332 332 333 333 333 333 331 330 330 330 330 330 329 329 329 328 328 328 327 326 325 324
315 315 315 316 316 316 315 315 315 314 314 313 313 316 315 311 312 313 310 309 308 308 308 307 307 307 306 306 307 308 308 307 307 308 309 309 309 309 309 309 308 309 311 314 315 317 318 319 322 323 325 328 329 330 330 331 332 331 330 331 331 330 330 330 329 329 329 329 329 329 330 331 331 330 330 331 331 332 332 331 331 330 330 330 329 329 329 328 328 327 327 327 327 326 324 324 324
314 314 315 316 316 316 316 315 315 314 314 313 313 315 313 311 312 313 310 309 308 308 309 307 307 307 306 306 306 307 308 307 306 307 307 308 307 307 307 307 306 308 310 314 316 317 319 319 322 324 325 328 329 330 330 330 330 329 329 329 328 328 328 328 327 326 326 327 328 328 328 329 330 330 329 329 329 330 330 329 329 329 329 329 328 328 327 326 326 326 326 327 326 324 324 324 324
314 314 316 318 317 317 317 315 314 314 313 312 313 314 314 313 312 311 309 308 309 309 309 308 308 307 306 306 306 307 307 306 306 307 306 306 306 306 306 306 305 307 310 313 315 318 320 319 321 324 325 327 328 328 328 328 327 327 327 326 326 326 326 325 325 325 325 326 326 326 327 327 328 328 328 328 328 328 328 328 328 328 327 328 328 327 327 326 326 325 325 325 325 324 324 324 323
315 315 316 318 318 318 317 315 313 314 312 311 313 315 315 315 312 309 309 309 309 309 310 309 308 307 306 306 306 306 306 306 306 305 305 304 305 305 305 305 304 306 310 312 314 316 318 318 321 324 325 326 327 327 326 326 325 325 325 324 324 324 324 324 323 324 324 324 324 324 325 324 325 326 326 326 327 327 327 326 326 326 326 326 326 326 325 325 325 325 325 325 324 323 324 323 322
316 317 316 318 317 317 316 315 315 315 312 311 313 314 316 315 312 310 309 309 310 311 311 309 308 307 306 306 306 306 306 306 305 304 304 303 304 303 303 303 304 308 310 312 313 314 315 317 320 323 323 324 325 325 325 324 324 324 323 323 322 322 322 322 322 321 321 320 321 322 322 322 323 323 322 322 323 324 324 323 322 323 323 323 323 323 323 323 323 323 323 323 322 321 322 322 322
317 316 316 319 317 316 317 315 315 316 312 311 314 315 316 315 312 311 309 309 309 311 311 310 308 307 306 306 305 306 306 305 305 304 303 303 303 302 302 303 305 309 310 310 311 313 315 316 318 321 322 323 323 323 324 323 323 323 322 321 320 320 320 319 318 317 318 318 318 319 319 319 320 321 320 319 319 319 318 317 317 317 318 318 318 319 319 319 319 319 320 320 319 319 319 319 319
319 317 316 318 317 318 317 315 314 315 314 314 314 315 317 315 312 311 309 309 310 310 312 310 308 307 306 306 305 306 306 306 305 304 302 302 302 302 302 302 306 308 307 308 310 312 314 315 317 319 320 321 321 321 321 321 321 320 320 319 318 318 318 315 313 313 315 315 315 316 316 316 315 315 315 316 316 316 315 314 315 315 314 314 314 314 314 314 315 315 315 316 316 316 315 314 314
318 318 317 317 318 318 316 316 315 314 314 315 315 316 317 316 312 310 309 310 310 311 311 309 308 307 306 306 305 305 306 306 305 303 302 302 302 301 301 302 305 306 305 307 310 311 312 313 314 314 316 318 319 319 319 318 318 317 316 315 315 315 314 312 310 311 312 312 313 312 313 313 312 311 310 311 311 312 312 312 312 312 312 311 311 311 310 310 311 312 312 312 312 311 311 310 310
317 318 318 318 318 317 317 317 316 315 315 317 317 317 318 316 313 311 310 309 310 312 311 309 308 307 306 306 305 305 305 305 304 302 301 301 301 301 301 302 303 304 304 305 307 309 310 310 311 310 311 313 314 313 314 313 313 313 312 311 311 310 309 308 307 307 308 308 309 309 310 310 310 309 308 308 307 307 308 307 307 307 307 307 307 306 307 307 308 309 309 310 310 308 307 307 307
318 318 318 318 317 317 318 318 315 315 316 317 318 318 319 318 315 312 310 309 310 311 310 309 308 307 306 306 305 305 305 304 302 301 301 301 301 301 301 301 302 303 303 304 306 308 309 309 309 308 308 309 309 309 308 307 307 307 306 306 305 304 304 304 304 304 304 304 304 305 305 306 306 306 306 305 305 304 304 304 304 303 303 303 303 303 303 304 305 306 307 308 308 307 305 305 305
318 318 318 318 318 318 319 318 314 314 317 318 319 319 319 319 317 314 310 309 310 311 309 309 308 307 306 306 306 305 304 303 302 301 301 301 301 301 301 301 302 302 302 304 306 306 307 307 308 307 307 307 308 307 307 306 305 304 302 301 300 299 299 301 301 301 302 302 302 302 302 302 302 303 303 302 302 301 301 301 301 301 301 301 301 301 301 301 302 302 305 307 307 306 304 303 303
318 318 318 318 318 318 319 317 314 313 316 318 319 319 318 319 318 315 310 310 311 310 310 309 308 307 306 306 306 305 304 303 302 301 301 301 301 301 301 301 301 302 302 303 304 305 306 306 307 307 306 306 306 305 305 304 303 301 300 298 297 296 297 298 298 299 299 300 300 300 300 300 300 300 300 300 299 299 298 299 299 299 299 298 297 298 298 299 299 300 302 304 305 304 303 302 302
318 318 318 318 319 320 319 317 314 313 315 318 318 318 318 318 318 314 310 311 311 310 310 309 308 307 306 306 305 304 304 303 302 301 301 301 301 301 301 301 300 301 301 302 303 304 305 305 306 307 307 307 307 306 306 303 301 301 299 297 296 295 295 295 294 295 296 297 296 296 297 297 296 296 297 297 296 296 295 295 294 295 295 294 294 293 293 295 296 297 299 300 303 303 302 301 301
318 318 318 318 319 321 319 317 315 313 314 316 317 317 318 319 317 314 311 311 310 308 307 307 307 307 306 305 305 304 304 303 302 301 301 301 301 301 301 300 300 300 300 301 301 302 303 304 305 305 306 307 308 308 307 304 302 300 298 296 295 294 293 292 292 291 292 291 291 291 291 291 291 291 291 291 291 291 291 291 291 291 292 292 292 291 291 291 292 293 295 296 299 301 301 300 300
318 319 318 319 320 320 320 318 316 315 315 315 316 318 319 319 320 315 310 308 307 306 305 305 305 306 305 304 304 304 304 303 302 301 301 301 301 301 300 300 300 300 300 300 300 301 301 302 303 303 303 303 304 304 303 302 300 298 296 294 294 293 292 292 291 291 290 289 288 288 288 288 288 288 288 288 288 288 288 289 289 289 290 291 291 291 291 289 289 290 292 293 294 297 298 296 297
319 320 319 318 319 319 320 320 318 319 321 317 316 322 322 319 322 319 310 307 307 306 305 305 305 305 304 304 303 303 303 303 302 301 301 301 301 300 300 299 299 299 298 299 299 300 300 301 301 301 300 300 299 299 299 298 297 296 296 295 294 294 293 292 292 291 291 290 289 288 288 288 288 288 288 288 288 288 288 288 288 289 289 289 289 290 290 289 288 289 290 291 291 292 294 294 294
320 321 320 318 319 320 320 321 320 322 324 318 316 322 324 319 320 318 312 310 309 306 306 306 305 304 304 304 304 303 302 301 301 301 301 301 301 300 300 299 298 297 297 297 298 299 300 300 300 300 299 298 298 297 297 297 297 296 295 295 294 293 292 292 292 291 291 290 289 289 288 288 288 288 288 288 288 288 289 289 289 289 289 289 288 288 289 288 288 288 288 290 290 290 291 292 292
322 321 320 320 320 320 321 321 321 322 322 318 315 319 322 320 319 316 312 312 311 308 307 307 306 305 304 304 304 303 302 301 301 300 300 300 300 299 299 297 296 296 296 296 297 298 299 299 299 299 298 297 297 296 296 296 295 294 293 293 293 292 292 292 291 291 291 290 290 289 288 288 288 288 288 288 288 288 288 288 288 288 288 288 288 287 287 287 287 287 287 287 289 289 289 290 291
320 317 318 319 319 320 320 320 321 320 321 321 319 318 320 321 319 315 313 313 313 311 308 307 306 305 305 304 304 303 302 301 301 300 300 299 298 298 297 296 295 295 295 296 296 297 298 298 298 297 296 296 295 295 295 294 293 293 292 292 292 292 292 292 291 291 291 290 290 290 289 288 288 288 288 288 288 288 288 288 287 287 287 287 286 286 286 286 286 286 286 285 286 288 288 289 290
317 315 317 317 318 318 319 320 320 319 320 322 321 319 321 323 319 316 314 314 316 314 310 308 307 305 305 305 304 303 302 301 301 300 299 299 297 296 295 295 294 294 294 294 295 295 296 296 296 296 295 295 294 294 294 293 292 291 291 291 291 292 292 292 291 291 291 291 290 290 289 289 288 287 287 287 287 287 287 287 287 286 286 286 285 285 285 285 285 285 285 284 285 285 286 288 288
316 316 318 318 317 317 317 317 318 320 322 322 321 319 320 322 320 318 318 316 316 316 312 309 307 306 305 305 304 302 301 300 300 299 299 297 296 295 294 294 294 293 293 293 293 294 294 294 294 295 294 293 293 293 293 292 291 291 291 291 291 292 292 292 292 292 291 291 291 290 290 289 288 288 287 287 287 287 287 287 286 286 285 285 285 285 285 284 284 284 284 284 284 284 284 285 286
316 318 318 319 319 317 317 318 317 322 325 321 318 319 321 322 321 318 318 316 315 316 312 309 308 306 305 305 304 302 301 300 299 299 298 297 295 294 294 294 293 293 293 293 293 293 293 293 293 293 293 292 292 292 292 291 291 290 290 291 292 292 292 292 292 292 291 291 291 290 290 289 289 288 287 287 287 287 287 286 286 286 285 285 285 284 284 284 284 284 284 284 284 284 283 284 285
317 318 318 322 323 321 322 322 320 323 323 315 314 317 321 321 319 318 317 314 314 315 313 310 308 307 306 305 304 302 301 300 299 298 297 296 296 295 294 294 293 293 293 293 292 292 292 292 292 292 291 291 291 291 290 290 290 290 290 291 291 291 291 291 291 292 291 291 291 290 290 289 289 288 287 287 287 287 286 286 286 286 285 285 285 284 284 284 284 284 283 283 283 283 283 284 284
316 319 319 323 326 325 326 325 323 324 320 312 312 316 319 319 317 318 316 313 311 312 311 311 308 307 306 305 304 302 301 300 299 298 297 297 296 295 295 294 293 293 292 292 292 291 291 291 291 291 290 290 290 290 289 289 289 289 289 290 290 290 290 291 291 291 290 290 290 289 289 288 288 287 287 286 286 286 286 285 285 285 284 284 284 284 284 283 283 283 283 283 283 283 283 283 283
316 318 320 322 325 326 326 325 324 324 317 311 312 316 319 319 316 314 311 308 307 308 309 310 308 307 306 304 303 302 300 300 299 298 298 297 296 295 294 294 293 293 292 291 291 291 291 290 290 290 290 289 289 289 289 289 289 289 289 289 290 290 290 290 290 289 289 289 288 288 288 288 287 286 286 286 285 285 285 285 285 284 284 284 284 283 283 283 283 283 282 282 282 282 282 283 283
317 317 319 321 322 322 321 319 318 318 316 314 314 316 317 316 313 309 307 306 306 306 307 308 308 307 305 304 302 302 300 299 299 298 297 297 296 295 294 294 293 292 291 291 290 290 290 290 289 289 289 289 288 288 288 289 289 289 289 289 289 289 289 289 289 288 288 288 287 287 287 287 287 286 286 286 286 286 285 285 285 285 284 284 284 283 283 283 283 282 282 282 282 282 282 282 282
318 317 319 319 318 318 319 317 314 314 319 320 316 316 316 315 314 309 307 307 306 305 306 307 308 307 305 304 303 302 301 300 299 298 297 297 296 295 294 293 293 292 291 290 290 290 289 289 289 288 288 288 288 288 288 288 289 289 289 289 289 289 288 288 288 288 287 287 287 287 287 287 287 287 286 286 286 286 285 285 285 284 284 284 283 283 283 283 282 282 282 282 282 282 282 282 282
317 318 318 316 316 317 317 320 319 318 322 322 318 318 318 318 317 312 309 309 308 306 306 306 307 306 305 305 303 302 301 300 299 298 298 297 295 294 294 293 292 291 291 290 289 289 289 289 288 288 288 288 288 288 288 288 288 289 289 289 288 288 288 288 288 287 287 287 287 287 287 287 287 286 286 286 285 285 285 284 284 283 283 283 282 282 282 282 282 282 281 281 281 281 282 281 281
314 316 317 317 319 319 318 320 322 322 324 323 320 319 318 318 318 314 312 312 310 307 306 306 306 306 306 305 304 302 301 300 299 298 297 297 295 294 294 293 292 291 290 289 289 289 289 289 289 288 288 288 288 288 288 288 288 288 288 288 288 288 287 287 287 287 287 287 287 287 287 287 286 286 285 285 285 284 284 283 283 282 282 282 281 281 281 281 281 281 281 281 281 281 281 280 281
311 313 315 316 318 319 319 320 320 322 324 324 322 320 318 318 318 316 315 314 311 309 306 306 306 306 306 305 304 303 302 301 300 298 297 297 295 294 294 293 292 291 290 289 289 289 289 289 288 288 288 288 288 288 288 288 288 288 288 288 287 287 287 287 287 287 287 287 287 287 286 286 286 285 285 284 284 283 283 282 282 281 281 281 281 281 281 281 281 281 281 280 281 280 280 280 280
312 313 316 316 316 316 317 319 319 319 321 323 324 323 320 317 316 317 317 315 313 310 308 307 306 305 306 306 305 304 302 301 300 298 298 297 296 294 293 292 291 291 290 289 288 288 289 289 289 288 288 288 288 288 288 288 288 288 287 287 287 287 287 287 287 287 287 287 287 286 286 285 285 284 284 283 283 282 282 281 281 281 281 281 280 280 281 281 281 280 280 280 280 279 279 279 279
315 315 316 317 317 316 318 320 319 317 318 321 322 323 321 315 313 314 315 315 314 312 309 308 307 306 306 306 305 304 303 302 301 299 298 297 296 294 293 292 292 291 290 289 289 288 289 288 289 288 288 288 288 288 288 287 287 287 287 287 287 287 287 287 287 287 287 287 286 286 285 285 284 284 283 283 282 282 282 281 281 281 280 280 280 280 280 280 280 280 279 279 279 278 278 278 278
Wind_Speed
10 9 8 7 5 6 4 3 2 2 2 4 3 2 5 4 1 1 3 2 3 6 5 4 4 4 5 4 5 6 8 9 8 5 5 4 4 6 4 3 5 8 11 15 13 16 18 17 16 14 14 12 12 11 10 10 9 9 8 8 8 7 7 9 9 9 8 7 7 8 7 7 6 6 6 6 5 6 6 7 7 6 7 7 8 8 8 8 8 9 9 10 10 10 10 10 10
10 8 7 6 4 5 0 1 2 3 2 4 3 3 5 2 1 2 6 5 5 6 3 3 2 2 4 3 3 1 7 9 9 7 7 6 9 11 3 2 6 7 10 14 13 14 16 16 17 15 14 13 12 11 10 9 9 8 7 7 7 8 8 9 10 9 8 7 7 8 7 7 6 5 5 5 5 5 5 6 6 5 5 6 6 7 8 8 8 9 8 8 8 8 9 9 9
9 8 6 5 4 4 1 2 3 2 2 4 4 4 2 1 3 5 6 6 6 4 1 1 0 1 5 4 1 1 7 8 9 5 7 8 5 11 8 1 4 6 9 13 12 13 15 15 18 16 14 13 12 11 11 10 8 7 6 6 6 7 7 9 10 9 8 8 8 8 7 6 6 5 4 5 4 4 5 5 5 5 5 5 5 6 8 8 9 10 9 9 9 8 9 10 10
7 7 5 4 3 3 3 3 2 2 1 3 4 4 1 3 6 5 6 5 4 3 2 1 1 2 4 2 3 2 6 7 11 8 5 9 6 10 7 1 3 3 7 11 12 12 13 15 17 16 15 13 13 12 11 10 9 7 5 4 4 5 5 7 9 9 7 7 7 7 6 6 5 3 2 3 3 4 4 5 5 5 4 4 5 6 7 7 8 10 12 12 12 12 13 13 12
6 5 4 4 3 1 2 2 2 2 2 3 4 5 3 4 5 5 6 4 3 3 3 3 2 3 2 6 4 2 6 3 10 13 7 7 9 7 4 4 4 1 6 10 11 10 11 14 15 16 14 13 13 12 12 11 9 7 6 5 4 4 4 5 7 8 7 7 7 7 6 5 4 2 1 2 2 3 3 4 5 5 3 3 4 5 7 8 7 9 13 13 14 15 15 15 14
5 5 3 3 1 1 2 2 1 2 5 4 4 6 5 5 5 4 5 5 3 3 3 3 3 2 3 6 7 7 8 5 5 11 9 8 10 3 6 6 5 3 7 9 10 8 10 12 13 15 14 13 12 12 12 11 10 8 7 6 5 4 3 4 5 6 7 6 6 7 6 5 4 2 1 1 1 2 3 3 5 4 3 3 5 7 8 8 6 9 12 13 14 15 16 16 15
5 3 2 3 1 1 4 1 1 4 4 5 5 6 6 6 4 2 5 5 3 2 2 3 3 2 3 5 6 10 11 9 5 7 8 9 8 4 7 7 6 6 6 7 9 7 8 9 13 16 14 13 11 11 12 11 10 9 8 7 5 5 4 4 4 5 6 6 6 6 6 4 3 2 1 0 1 3 4 4 5 5 4 4 6 8 8 6 6 9 12 14 15 16 16 16 15
4 3 1 2 2 2 3 2 3 3 4 4 5 6 6 5 2 0 3 2 2 3 2 3 3 3 4 3 4 9 13 12 8 8 9 10 8 5 8 8 7 7 6 6 8 8 7 8 13 17 14 12 11 11 11 11 10 9 8 7 6 5 5 5 5 6 6 6 6 5 5 4 2 1 1 1 2 3 5 5 5 5 4 5 6 7 7 6 7 10 13 15 16 16 16 16 15
3 2 1 2 2 2 1 3 3 3 5 4 5 5 5 4 2 1 2 3 3 3 4 4 5 3 5 5 6 9 10 10 7 11 11 11 10 5 7 7 7 7 5 6 6 7 6 8 14 17 15 13 12 11 10 11 10 9 9 8 6 5 5 6 5 6 7 6 6 6 5 4 3 2 0 1 2 3 4 5 5 5 4 5 5 4 5 6 8 11 14 16 16 17 16 16 15
2 1 1 2 1 3 2 3 3 4 5 4 4 5 4 2 1 1 1 3 2 1 5 3 4 2 3 5 7 6 9 9 8 12 12 11 10 8 6 5 7 6 4 5 6 6 5 7 15 17 15 15 14 12 10 10 10 10 9 8 6 5 5 6 5 6 7 6 7 7 6 5 4 3 2 2 3 3 4 5 4 4 4 4 4 2 4 7 9 12 15 16 17 17 18 17 15
2 1 1 3 3 3 3 3 4 4 5 4 4 5 3 2 1 1 1 2 2 1 4 2 2 3 2 4 5 6 11 14 13 13 11 10 9 8 6 3 4 5 5 7 6 6 3 4 12 17 15 16 15 13 11 10 10 9 9 8 7 6 6 6 6 6 6 6 6 6 6 5 5 5 5 3 4 4 4 5 5 4 3 3 3 2 4 8 10 12 14 16 16 18 19 18 15
2 2 2 4 3 1 0 3 5 5 6 5 5 5 2 0 3 1 1 1 2 2 4 3 3 3 4 4 5 7 13 17 14 11 9 8 7 7 6 4 2 4 4 5 5 5 3 2 8 14 16 16 16 15 13 11 10 9 8 8 8 6 6 6 6 6 5 4 5 5 5 6 5 5 5 4 4 4 4 5 5 4 3 3 2 1 4 7 10 11 14 15 15 16 18 19 17
2 0 3 3 1 1 1 3 5 6 5 5 4 5 0 2 2 2 2 1 1 1 4 5 4 3 5 2 6 7 12 16 12 10 8 6 6 6 6 5 3 3 4 4 4 3 3 4 5 9 13 15 15 15 15 13 12 11 10 9 8 7 6 6 6 6 5 3 4 4 5 5 5 5 5 4 4 4 4 4 5 4 3 3 2 1 3 6 8 10 12 14 14 14 17 19 18
2 1 3 1 1 1 1 2 5 5 5 6 4 4 2 1 2 3 4 3 2 3 5 4 4 4 3 1 5 5 9 14 12 9 6 4 5 6 6 5 4 4 5 5 4 3 3 4 5 6 8 11 12 12 14 14 14 12 11 10 9 9 8 7 7 6 5 3 3 4 6 6 6 6 5 4 4 4 4 4 5 4 4 3 2 1 2 4 7 9 11 13 14 13 15 18 19
2 0 3 1 2 3 2 1 5 5 4 8 3 2 3 1 1 2 3 4 4 6 2 1 2 4 2 1 1 4 10 14 12 8 5 2 4 4 6 6 5 5 5 6 4 2 3 2 3 4 6 7 9 9 10 13 14 13 13 11 10 10 9 9 9 8 6 4 4 4 6 7 7 8 7 5 4 3 3 5 5 5 4 3 2 1 2 4 7 8 9 11 14 14 14 15 18
3 1 3 2 2 3 4 2 3 5 4 7 4 2 3 4 2 3 3 4 2 2 1 1 2 4 5 5 4 7 11 12 11 7 3 0 2 3 5 5 5 5 4 5 4 2 1 2 2 4 6 6 7 9 9 10 12 13 13 12 12 11 10 9 9 9 7 6 5 5 5 6 8 9 9 6 4 4 4 5 6 6 5 3 3 1 1 4 7 8 9 10 13 14 14 13 15
2 2 3 3 3 3 4 5 3 2 6 7 4 1 4 4 5 2 1 4 6 2 2 5 5 6 6 5 5 7 9 10 9 5 2 1 1 2 4 4 4 5 5 4 3 1 1 1 3 3 5 6 6 7 8 9 10 11 13 13 13 12 11 10 9 9 8 8 7 6 5 5 7 8 8 7 5 5 4 5 6 6 5 4 4 3 3 3 6 7 9 11 12 13 14 14 15
2 2 3 2 2 2 2 3 2 2 5 6 4 1 3 2 3 3 2 5 6 4 4 7 7 9 8 6 6 7 8 9 9 7 6 5 3 2 3 5 4 5 5 5 4 2 0 1 3 3 4 5 7 7 6 7 8 9 10 10 11 11 11 10 9 9 9 9 9 8 6 5 7 7 7 7 5 5 6 6 6 7 7 6 5 5 4 5 7 8 10 12 11 11 13 13 14
2 2 3 0 2 3 3 2 4 2 3 5 3 1 2 3 2 1 4 4 5 5 6 8 7 9 7 8 7 8 9 10 11 10 9 8 6 6 5 5 6 6 6 6 6 5 2 2 3 5 5 5 7 8 5 5 6 6 7 8 9 9 10 10 9 9 9 9 8 8 7 7 7 7 8 9 7 7 7 6 7 7 8 6 6 6 7 8 8 8 9 10 9 10 11 9 11
1 2 3 2 4 4 3 3 4 3 3 2 2 2 3 3 2 2 5 6 6 2 4 5 6 7 5 7 8 8 8 9 11 10 10 10 8 7 7 7 7 7 8 6 6 7 5 3 3 5 8 8 7 7 6 5 6 5 6 7 8 8 10 10 9 8 9 9 8 7 7 8 8 7 8 9 8 8 7 7 7 7 8 8 7 7 8 8 7 7 7 7 8 7 7 7 8
1 2 2 5 3 3 4 3 4 4 2 1 1 0 4 2 2 5 5 8 5 4 7 4 4 6 5 6 7 7 7 8 9 9 10 10 10 9 8 8 7 7 8 7 7 8 8 6 3 5 8 10 7 7 7 6 6 5 5 6 7 7 8 8 9 8 9 8 7 6 7 8 8 7 8 8 7 7 6 7 7 5 7 10 8 6 7 7 5 4 4 5 5 4 4 7 8
1 1 4 5 1 1 5 3 3 3 1 1 2 3 2 0 3 5 6 7 1 5 6 5 5 6 5 5 5 5 6 8 8 9 9 9 10 10 9 8 8 8 8 9 9 9 9 8 5 3 5 8 7 6 7 6 6 5 5 4 5 5 4 3 5 6 7 7 5 4 5 7 7 7 6 7 7 7 7 6 6 5 5 9 9 8 7 6 4 4 3 2 2 3 3 7 9
2 2 3 2 1 1 4 3 2 1 2 3 3 2 2 4 6 4 4 3 4 4 3 4 5 4 4 4 4 5 6 7 9 9 9 9 10 10 10 9 9 9 9 10 10 10 9 8 7 6 1 6 6 7 7 6 6 5 4 5 4 3 2 1 1 1 2 2 2 3 4 6 7 8 6 7 8 7 7 6 6 5 5 7 8 7 7 6 6 7 5 3 2 2 3 6 7
4 0 4 2 1 1 1 3 3 3 5 4 2 3 5 8 5 3 3 3 6 5 4 4 4 4 3 3 4 5 6 6 7 7 8 8 9 10 10 9 9 10 10 11 11 9 10 9 8 7 2 4 5 7 7 7 6 5 3 4 4 3 3 3 3 3 4 4 2 1 2 3 4 6 7 8 8 8 7 6 6 6 6 6 5 5 5 6 7 7 6 3 3 2 3 5 5
4 1 4 2 1 3 2 2 4 6 6 4 3 6 8 7 2 3 4 5 5 5 4 4 3 3 3 4 5 5 5 6 6 6 6 6 7 8 9 9 9 10 11 11 10 9 10 10 9 6 3 4 5 7 7 7 6 6 6 6 7 6 7 6 4 5 5 4 3 2 2 2 2 3 5 7 8 9 9 8 6 4 4 4 3 3 5 5 5 5 5 5 3 3 3 4 4
1 1 2 2 3 4 4 5 7 6 5 4 6 9 8 3 2 4 4 5 5 5 4 3 3 3 3 4 5 5 5 6 6 6 6 6 6 8 10 10 10 11 11 10 9 9 10 11 10 5 4 6 6 7 8 9 9 9 8 8 9 9 10 9 7 7 6 5 4 2 1 1 1 2 4 6 6 5 7 7 5 2 2 2 1 3 3 3 3 3 5 6 6 6 3 4 5
2 2 3 6 6 5 5 6 6 5 5 6 8 9 4 5 4 4 5 6 6 5 4 3 2 2 4 3 4 5 5 6 6 6 7 6 7 9 9 10 11 11 10 9 9 10 10 10 9 7 7 6 8 10 11 11 11 11 9 8 10 10 10 9 9 9 8 8 6 5 3 2 1 1 3 4 5 4 4 3 1 1 1 1 1 2 1 2 3 3 5 6 8 7 4 5 7
1 3 6 7 8 7 7 7 5 4 4 6 8 6 4 6 5 2 7 8 6 5 4 3 2 2 3 2 3 3 4 4 4 5 6 6 6 8 9 10 11 10 10 10 11 10 10 10 8 8 8 8 10 12 13 13 15 16 14 13 13 13 11 10 10 10 10 9 8 7 6 5 4 3 3 4 4 3 4 5 4 2 1 1 1 2 3 3 3 3 3 5 7 7 6 7 8
2 3 6 6 8 9 8 6 4 4 3 4 6 5 6 10 6 6 8 7 6 5 4 4 3 2 2 2 2 2 3 3 3 4 5 5 5 7 8 9 10 10 10 10 11 11 10 11 9 9 12 14 15 15 16 18 20 20 18 17 16 16 15 13 13 12 11 10 9 10 9 7 7 7 6 5 5 6 7 7 7 6 5 4 3 4 4 4 3 3 4 5 6 7 8 8 6
3 4 5 6 8 7 7 5 4 5 3 5 5 5 6 11 8 8 8 7 7 6 5 4 3 3 2 2 2 2 3 2 3 4 5 5 5 7 7 9 10 9 9 11 12 12 10 11 13 14 15 18 19 18 19 21 22 21 20 19 18 18 18 17 17 16 14 14 14 13 11 10 10 11 10 8 7 8 9 10 10 9 8 7 6 5 4 4 5 5 6 7 6 6 6 6 4
4 4 4 5 7 3 7 6 5 5 4 6 7 6 3 8 9 7 6 7 8 7 6 5 3 3 2 2 2 2 3 3 4 4 5 6 6 6 7 8 8 7 9 12 12 12 12 13 16 18 17 18 19 20 21 21 21 20 21 20 20 21 20 19 20 20 20 20 19 18 16 15 13 12 12 10 9 10 11 12 12 11 10 9 8 6 5 4 4 4 4 4 4 4 4 4 5
4 4 4 5 4 3 7 6 5 3 3 7 8 5 2 8 9 7 5 6 8 7 6 5 4 3 3 2 3 2 3 3 3 4 5 6 6 6 6 7 6 8 10 11 11 12 15 16 18 20 20 19 19 20 21 21 21 21 22 22 22 22 22 23 23 23 23 22 22 22 21 20 17 15 14 13 12 12 12 13 13 12 12 12 11 9 7 6 6 6 4 3 3 5 4 3 4
5 5 6 5 5 4 4 5 3 2 3 8 9 6 3 6 9 7 5 7 8 7 6 5 4 4 3 3 3 2 3 3 3 4 5 5 6 6 6 5 5 8 9 9 11 13 16 18 19 22 23 23 22 22 22 22 23 23 24 24 24 24 24 24 25 24 24 23 23 23 22 23 23 22 21 19 18 18 17 15 14 13 13 13 13 13 12 10 9 10 9 7 5 4 5 4 4
5 5 5 7 7 6 4 3 4 4 4 7 9 9 8 5 11 8 7 7 8 8 7 6 5 4 3 3 3 3 3 3 3 3 5 5 6 5 5 5 5 8 8 8 11 13 17 19 20 21 23 25 25 25 24 24 24 24 25 25 24 25 25 25 25 24 24 23 23 22 22 22 22 23 22 22 22 21 21 20 19 17 16 17 17 17 16 15 13 12 12 11 11 10 9 9 10
6 4 4 6 6 7 8 3 4 6 6 7 8 10 11 6 11 9 8 8 8 7 6 5 5 4 3 3 3 3 3 3 3 4 5 5 5 5 5 5 5 6 7 7 9 13 16 18 19 18 19 23 25 25 24 24 25 25 25 26 25 25 25 25 25 25 24 23 22 21 21 20 20 21 20 20 20 19 20 20 19 19 18 19 19 19 18 17 16 15 14 14 13 13 15 14 15
7 6 6 7 6 7 7 1 4 3 5 8 11 11 13 9 9 10 9 8 8 7 5 5 4 4 3 3 3 2 3 2 4 4 4 4 5 5 5 5 5 6 7 7 9 12 13 15 17 16 14 15 17 19 18 19 23 24 24 24 25 26 26 26 25 25 24 24 23 22 22 21 20 20 20 20 20 20 20 19 19 19 19 20 20 20 19 18 17 16 14 14 12 12 16 17 18
5 6 7 8 8 9 6 2 5 2 4 8 11 12 14 13 9 10 10 8 8 8 7 6 5 4 4 4 3 3 3 3 4 3 4 4 4 5 5 5 5 6 7 7 9 12 11 12 14 15 12 11 11 12 12 14 16 17 17 18 20 22 24 26 27 26 25 25 24 24 24 23 22 21 21 22 22 22 21 21 21 20 20 21 21 20 19 19 19 17 12 12 12 13 16 19 21
7 7 7 8 8 9 6 3 5 3 3 8 11 13 13 15 11 9 11 9 9 9 9 8 7 5 4 4 5 4 3 4 4 4 4 4 4 4 4 5 6 6 7 8 9 10 10 11 12 13 13 13 13 12 13 15 15 15 16 17 18 20 24 27 28 28 27 27 26 26 26 25 25 24 23 24 24 24 23 23 23 22 21 22 23 23 22 21 22 21 17 14 12 13 15 18 22
8 6 7 8 6 8 6 4 5 3 3 6 9 11 11 14 11 9 11 10 8 7 6 5 6 7 5 5 5 5 5 5 5 5 4 4 5 4 5 5 6 6 7 8 9 9 10 12 13 13 13 15 16 16 18 20 21 22 23 23 25 26 27 29 30 30 30 30 30 30 29 28 28 28 27 27 27 27 26 25 25 24 23 23 24 26 26 25 24 23 21 18 14 12 13 16 20
8 6 6 7 6 6 6 3 4 4 4 6 7 8 10 12 8 9 9 7 6 5 4 4 4 5 6 6 5 6 7 6 6 6 6 6 5 5 5 5 6 6 7 8 8 9 10 11 13 14 15 16 18 19 21 24 25 28 29 30 30 30 29 29 30 30 31 32 32 32 32 31 30 30 30 29 29 29 28 27 26 25 23 21 22 23 25 26 25 23 22 20 17 13 13 15 17
8 9 8 8 8 7 7 2 0 4 7 6 6 8 9 12 13 9 6 4 5 5 6 6 6 5 5 5 5 6 6 7 7 7 7 7 6 6 6 5 6 6 7 9 10 9 9 12 14 15 17 19 21 23 25 27 29 29 28 26 24 23 21 21 23 24 26 29 31 31 31 31 30 30 30 29 29 29 28 28 27 26 24 22 21 21 22 24 25 24 21 20 20 16 13 14 15
8 10 12 12 11 10 10 6 3 6 7 5 4 8 6 5 11 9 7 5 7 7 9 9 10 8 7 7 7 6 6 6 7 7 7 7 7 7 6 6 6 7 8 10 12 11 11 13 15 17 19 21 21 21 21 21 22 19 17 16 15 15 16 16 16 17 19 23 27 29 29 29 29 29 28 28 28 27 27 27 26 26 25 24 23 21 21 23 24 23 21 19 19 18 13 13 15
7 4 7 10 11 10 10 8 3 5 6 2 4 7 5 3 5 6 7 7 8 8 9 10 10 9 9 9 8 8 7 6 6 7 8 7 7 7 7 6 6 6 7 10 12 13 14 15 17 18 19 19 18 17 13 12 13 13 15 15 15 15 17 15 15 16 17 19 24 27 28 28 27 27 26 26 26 25 25 25 24 24 24 23 23 23 22 22 22 21 21 19 18 18 16 13 14
5 2 1 4 7 8 9 8 6 6 6 2 6 6 7 7 4 6 6 7 8 8 9 9 9 9 10 9 9 9 8 8 7 7 8 8 7 7 6 6 5 6 7 10 13 14 15 16 17 18 18 17 17 16 14 14 17 21 22 21 18 17 18 17 15 16 17 19 21 24 26 26 26 25 25 24 24 24 23 23 22 22 22 22 21 21 21 20 20 20 20 20 17 17 17 14 12
2 3 2 1 2 5 6 6 6 6 6 5 7 6 5 8 4 6 7 7 8 10 11 11 11 11 11 10 10 10 9 8 8 7 8 8 7 6 6 6 5 6 8 11 13 14 15 16 17 17 17 17 17 18 19 21 24 25 25 24 22 19 18 17 16 16 17 18 19 19 20 22 24 24 24 23 23 22 22 22 21 21 21 20 20 19 19 19 19 19 19 19 18 15 15 14 12
2 5 4 4 2 1 3 5 5 5 7 8 8 8 6 8 4 6 5 5 8 9 10 12 12 12 12 11 11 11 9 8 7 8 9 8 7 6 6 6 6 8 10 12 13 14 15 15 16 17 18 18 19 21 23 25 25 26 25 24 22 19 17 16 16 16 16 17 17 16 17 18 20 22 23 22 22 22 21 20 20 20 19 19 19 18 18 18 17 18 17 17 17 15 14 13 12
7 6 4 4 3 2 2 4 3 5 9 9 10 13 9 6 4 6 5 4 7 8 10 11 13 14 13 12 12 11 10 8 7 8 9 8 7 6 6 6 7 8 10 11 13 15 15 16 17 19 20 20 21 23 24 24 25 25 24 23 22 19 16 15 15 14 14 14 15 15 15 16 18 20 21 21 21 20 20 19 18 18 17 17 18 17 17 17 16 16 16 15 16 16 14 13 12
6 5 4 4 3 3 3 4 4 7 9 4 5 9 12 8 4 3 4 4 5 8 11 14 16 16 15 12 12 12 10 9 9 8 9 9 8 7 7 7 7 8 9 11 13 16 17 18 20 22 22 22 22 23 24 25 25 25 25 23 20 17 15 15 15 14 13 13 13 12 13 14 15 17 19 20 20 20 19 18 17 16 16 16 16 16 16 16 15 14 15 15 15 15 15 13 12
5 5 6 5 4 4 5 5 6 7 5 2 2 3 8 10 8 6 3 6 6 6 9 14 17 17 16 14 13 12 10 10 10 8 8 9 10 9 9 9 9 8 9 10 14 18 19 20 22 24 23 22 23 23 24 25 25 25 25 22 19 17 18 17 15 14 12 11 11 11 11 12 13 15 17 18 18 18 18 17 16 16 15 15 14 14 15 15 14 13 14 14 14 14 15 13 12
9 8 8 7 6 6 7 6 6 6 2 2 2 2 4 6 8 10 6 5 5 4 5 12 17 17 16 15 13 11 11 10 9 9 8 9 11 11 10 10 10 9 10 13 16 18 20 21 22 24 24 23 24 24 25 25 25 24 24 22 21 20 19 16 14 14 13 12 12 12 12 12 13 14 16 17 17 16 16 16 16 16 15 15 15 14 15 15 14 13 13 14 14 14 15 13 12
10 9 8 8 7 6 7 5 5 4 1 2 2 3 5 4 1 1 2 5 5 4 3 7 14 15 14 13 12 11 11 10 9 9 9 11 13 12 12 12 11 11 12 15 16 18 20 22 23 25 25 24 25 25 25 25 24 24 24 22 21 20 19 17 17 17 16 16 15 14 12 11 11 13 14 16 17 16 16 16 16 16 16 16 16 16 16 15 15 14 13 14 14 15 16 15 13
7 6 8 9 6 5 4 1 1 1 1 2 5 4 4 3 3 4 4 4 5 4 3 8 12 14 13 12 12 11 11 10 9 9 10 12 14 13 13 12 12 12 13 16 18 20 22 24 24 26 26 26 26 26 25 25 25 24 23 22 21 20 20 19 19 18 18 17 16 15 14 13 12 13 14 15 15 15 14 14 15 14 15 15 15 16 16 16 16 15 14 15 15 17 17 15 13
6 6 8 4 1 3 2 1 2 1 6 4 6 5 5 2 3 6 7 5 6 6 6 9 13 15 14 12 12 12 11 11 10 10 11 13 15 14 13 13 13 14 15 18 21 23 24 26 27 27 26 27 26 26 26 25 25 24 23 22 21 21 21 20 19 18 18 17 16 15 15 14 13 12 13 13 13 13 12 12 12 12 13 13 13 14 14 15 15 15 15 15 15 17 17 15 13
5 6 6 4 3 2 2 4 2 3 8 5 6 9 7 6 4 5 7 7 8 8 8 10 12 14 14 12 12 13 12 11 11 11 12 14 16 15 14 14 13 15 17 20 22 23 25 26 27 28 28 28 27 26 26 26 25 24 23 22 21 20 20 18 18 17 16 15 15 14 13 12 11 11 11 11 11 11 11 11 11 11 11 11 12 13 14 14 14 14 14 13 13 16 17 16 13
0 2 4 4 3 5 5 5 5 6 8 5 6 10 8 8 6 5 9 11 10 11 10 12 14 15 14 13 14 15 13 12 11 12 12 13 16 16 16 15 15 16 18 21 23 24 24 24 25 27 28 28 27 27 26 26 25 24 23 22 20 19 18 17 16 15 14 13 13 12 11 10 9 9 9 9 9 9 9 9 9 9 10 10 12 12 13 14 14 13 13 12 13 16 17 15 13
1 2 4 3 2 4 5 5 4 5 7 6 6 6 6 8 8 10 13 13 12 13 12 13 15 16 15 14 15 15 14 13 12 12 12 14 17 18 17 17 17 18 19 21 24 24 23 23 24 25 26 27 27 27 26 26 25 24 23 21 19 18 17 16 14 13 12 11 10 9 9 8 8 8 8 7 7 7 7 8 8 9 9 10 11 12 13 13 13 13 12 13 14 15 15 14 13
7 6 8 6 3 1 2 5 5 4 6 6 7 6 3 3 5 9 13 12 13 14 14 13 13 15 15 15 15 15 14 14 13 13 12 15 18 18 18 18 18 19 19 21 24 24 22 23 24 25 26 27 27 26 26 26 24 23 22 20 18 17 15 14 12 11 10 9 8 7 7 7 7 7 7 7 7 7 8 8 9 9 10 11 11 12 13 13 13 13 13 13 14 14 15 14 13
9 9 10 10 8 5 4 6 6 4 4 4 5 8 3 3 1 1 4 6 9 13 13 11 12 15 15 15 16 16 15 14 14 13 13 15 18 18 19 19 18 18 18 19 22 22 22 24 25 25 27 28 27 27 26 25 24 23 21 19 17 16 14 12 10 9 8 7 7 6 6 6 6 6 6 7 7 8 8 9 9 10 10 11 12 12 13 13 13 13 13 13 13 14 14 13 13
Wind_Direction
344 334 333 333 318 293 262 249 229 188 261 98 90 130 85 50 83 141 103 80 114 65 29 19 13 338 324 338 11 42 39 28 24 20 66 82 76 55 130 82 62 139 158 161 170 181 175 172 173 176 179 180 177 176 176 170 164 160 154 144 132 127 126 133 136 132 132 133 130 126 126 121 115 110 107 103 105 108 104 104 101 98 95 95 93 89 83 76 73 69 64 60 57 53 49 44 36
340 330 318 315 283 276 221 219 259 148 174 114 84 61 96 145 179 66 59 47 56 50 24 13 7 340 307 289 299 87 60 48 47 62 81 105 110 54 47 109 69 133 157 163 166 177 177 177 177 178 181 183 181 179 181 177 170 166 162 151 138 136 131 137 142 138 142 141 139 136 132 127 122 122 121 105 101 110 109 110 106 100 96 95 93 93 90 79 66 58 56 50 45 42 37 31 22
341 339 313 285 250 252 229 224 258 174 159 111 95 81 118 158 82 61 49 46 49 30 11 5 219 338 273 216 303 18 79 66 47 63 84 78 99 26 3 206 95 125 155 166 165 171 179 183 180 179 182 184 184 183 182 181 177 173 170 160 147 140 132 137 143 145 148 146 144 143 138 134 128 127 133 119 108 113 113 117 116 104 97 95 90 89 85 75 62 50 42 34 29 23 15 8 1
344 341 319 278 237 217 242 235 272 273 129 105 112 109 109 72 74 66 61 56 50 8 352 316 149 43 310 60 56 30 78 75 48 30 67 60 12 353 358 166 92 113 159 166 168 170 182 190 183 181 184 185 186 185 182 182 181 179 180 170 160 147 131 133 144 150 150 150 148 146 143 136 134 125 124 125 118 126 118 119 124 112 106 100 86 80 71 64 59 41 28 21 14 7 1 357 352
336 321 313 282 260 218 273 262 279 304 50 72 115 116 105 81 79 75 78 74 61 13 350 323 71 102 358 35 13 350 32 51 64 35 24 36 353 350 44 69 55 120 164 166 169 168 189 196 186 185 187 188 188 186 183 183 182 183 182 177 173 155 132 127 143 153 152 156 155 149 145 142 147 136 111 106 107 134 126 124 131 124 113 97 84 73 54 51 49 26 19 14 8 5 3 3 1
315 295 279 268 294 335 264 217 221 95 38 16 105 116 105 82 75 80 99 98 83 41 0 334 13 103 119 67 47 38 16 344 47 29 8 353 348 45 85 48 34 98 151 166 168 169 194 197 194 192 190 193 190 188 188 186 185 185 182 177 178 164 147 132 134 152 160 163 163 161 157 157 160 166 168 78 79 146 139 134 137 135 112 86 78 66 50 46 40 21 15 11 9 8 8 9 9
316 298 213 228 167 242 260 179 96 106 50 13 90 108 99 85 69 100 130 125 124 106 29 12 353 307 116 108 82 59 35 27 36 22 9 355 2 110 97 48 47 91 131 157 166 175 195 199 204 199 194 196 194 195 193 192 190 187 184 179 177 174 163 148 138 149 167 175 173 170 166 168 164 193 227 78 124 153 150 141 130 126 108 92 79 69 58 48 36 22 16 14 14 12 11 11 11
316 313 188 254 186 212 276 116 68 83 85 52 78 81 79 75 48 79 121 103 95 97 60 61 335 295 109 132 110 73 47 54 70 42 25 15 24 119 114 73 62 83 109 134 165 184 208 214 206 198 196 199 199 200 198 196 195 194 191 183 180 182 174 162 156 151 166 183 180 175 173 173 171 220 267 47 110 141 149 135 118 119 111 102 90 81 71 56 36 26 22 20 18 14 12 11 14
284 283 218 258 220 196 247 121 90 85 108 109 100 84 77 68 26 346 97 99 82 76 53 34 330 328 122 129 107 89 52 54 69 44 33 29 37 84 109 95 82 77 96 116 151 183 226 229 200 194 197 201 203 203 201 201 200 203 196 189 191 192 186 172 168 164 167 182 186 184 180 173 180 210 246 79 106 131 144 129 121 128 119 106 102 88 63 58 44 32 27 23 21 16 14 13 15
245 244 271 260 245 189 190 145 119 114 115 117 108 94 89 73 36 338 18 100 82 82 68 6 313 24 142 130 101 94 50 44 48 36 31 32 43 61 68 97 106 92 110 126 132 164 225 232 195 193 199 202 207 207 205 209 209 210 202 197 204 205 197 184 178 174 173 184 191 193 187 179 188 209 213 159 133 143 148 140 141 139 122 104 110 88 42 48 42 33 27 23 23 19 16 15 16
225 177 282 258 231 205 198 160 134 127 126 135 121 94 83 62 229 216 282 100 92 171 84 322 280 48 219 126 94 109 60 37 34 25 22 31 43 63 56 61 107 111 138 158 154 157 193 234 200 198 204 206 210 211 210 215 215 216 213 213 217 213 206 198 190 181 182 192 196 200 194 190 201 209 215 196 157 161 166 157 153 146 127 106 113 87 49 42 35 30 23 19 21 21 18 17 16
250 165 216 247 236 222 123 146 139 133 142 164 145 101 71 255 247 229 253 93 105 178 88 9 352 357 251 142 122 126 60 30 24 15 17 31 40 62 67 52 66 111 126 152 156 150 152 196 207 206 211 214 214 213 216 219 219 220 224 226 225 222 220 209 201 193 190 203 212 216 209 206 217 220 225 217 184 174 179 170 160 157 142 124 129 85 50 38 29 22 14 11 17 22 20 18 17
300 9 235 250 317 326 82 133 137 147 163 169 132 97 60 239 258 352 331 300 159 197 68 23 346 306 271 121 139 134 52 21 10 7 15 32 47 59 72 70 62 98 101 109 123 128 155 167 187 208 220 225 223 221 221 224 225 222 225 231 231 229 230 225 218 210 200 212 238 244 237 226 233 243 242 229 207 193 189 177 172 174 161 149 148 101 51 31 17 10 4 2 9 19 21 20 18
320 5 274 260 61 262 147 140 148 177 174 135 101 93 165 265 0 347 314 290 77 48 42 21 331 300 269 194 147 121 24 4 356 2 12 28 62 66 74 76 71 85 88 91 111 123 149 171 174 197 219 228 227 229 228 230 234 228 225 228 232 229 227 229 225 223 214 217 246 258 257 248 249 258 257 247 224 214 212 192 186 188 176 174 171 98 40 17 8 2 357 1 6 13 20 22 20
327 341 275 240 179 204 175 183 169 209 169 127 103 90 168 114 24 300 328 326 47 59 27 70 337 315 311 298 73 31 351 349 348 353 2 30 79 71 74 76 75 79 86 86 82 112 143 172 178 190 200 216 218 223 229 235 241 238 231 227 230 232 229 230 224 222 218 218 239 254 261 259 257 260 264 261 243 236 235 212 206 207 197 196 195 124 11 359 359 352 352 6 10 9 14 19 21
325 289 249 217 200 202 180 187 190 218 149 122 113 108 210 147 146 279 22 335 324 91 302 69 47 344 13 17 18 0 342 347 346 345 351 103 119 90 83 78 77 67 70 81 63 76 128 161 175 186 187 199 211 218 223 233 245 246 239 231 229 230 231 235 228 220 215 219 231 241 256 259 256 259 262 261 252 256 245 230 230 222 215 219 211 210 314 339 342 343 351 4 10 9 8 11 18
292 252 240 218 198 196 170 178 188 166 122 123 127 144 252 163 155 201 26 285 270 256 75 66 60 43 45 49 22 1 354 359 359 0 20 42 134 125 84 65 69 57 47 50 35 53 92 201 199 195 187 189 200 218 224 230 246 251 242 234 233 233 234 237 235 226 223 228 229 235 245 247 247 250 256 253 243 249 241 237 242 232 234 237 223 232 261 317 329 331 345 357 7 10 10 13 15
264 243 235 228 181 152 138 166 132 103 126 129 123 79 289 243 149 135 244 224 234 257 123 98 76 74 75 71 38 17 15 15 21 31 44 39 33 49 54 46 45 42 39 36 13 0 13 244 225 207 199 192 189 201 217 225 240 254 242 231 234 235 235 237 238 236 235 235 232 235 236 238 236 228 239 242 235 239 232 232 235 230 234 239 230 229 253 296 309 315 336 354 3 9 19 22 12
279 284 243 203 78 85 64 93 90 83 122 121 118 72 294 300 33 67 271 221 219 249 150 135 111 97 86 65 41 29 27 26 31 33 41 39 33 32 32 31 30 29 22 20 10 355 336 265 241 219 214 202 185 186 203 216 222 241 234 225 230 228 232 235 236 237 235 233 234 237 233 232 231 223 234 239 235 243 245 243 237 235 232 232 240 241 259 284 292 303 326 351 4 15 30 29 11
297 287 257 94 85 95 84 91 85 59 73 121 134 83 281 286 344 306 298 285 257 248 111 145 125 91 69 54 35 27 29 32 33 31 37 33 30 30 24 21 15 14 7 3 6 353 345 311 247 229 221 209 192 184 193 206 204 214 214 213 222 226 231 228 227 231 230 229 228 234 233 231 232 232 243 247 245 250 256 254 248 246 235 228 241 248 255 268 276 295 321 3 18 23 31 26 18
321 311 338 91 113 136 121 110 81 66 46 328 95 143 268 256 313 294 298 289 255 96 48 32 58 51 47 47 32 26 28 34 34 31 34 29 27 25 19 17 7 4 1 359 1 352 349 340 293 242 221 207 199 188 187 196 194 195 198 198 208 222 231 229 234 238 227 225 225 223 231 235 235 237 248 251 243 239 240 247 251 245 229 224 229 233 238 253 263 280 325 23 27 11 13 22 27
276 34 40 88 133 134 124 111 73 69 29 307 235 250 282 65 275 273 269 282 301 72 27 22 38 42 42 34 28 28 29 31 31 28 27 27 24 19 14 9 6 4 1 1 357 353 353 349 340 298 216 194 189 187 188 194 191 181 184 185 187 205 225 242 263 254 226 220 226 225 240 246 241 238 248 252 241 236 233 236 238 224 214 216 219 219 223 240 250 249 275 327 354 342 347 14 25
283 123 91 92 6 33 119 123 106 112 251 233 246 289 337 270 259 248 257 296 62 65 39 56 55 57 52 42 39 35 36 30 27 21 16 21 19 14 10 5 6 2 0 1 356 355 354 353 356 343 245 179 179 182 183 185 180 171 172 173 167 174 176 119 355 316 228 222 241 250 265 269 263 254 253 257 250 243 242 240 239 231 217 217 222 224 225 238 251 251 248 255 281 300 327 356 16
284 178 137 122 16 292 130 136 156 199 240 243 292 320 267 254 251 208 206 86 88 90 81 82 78 83 75 65 56 44 48 38 31 23 15 18 15 13 10 7 10 4 3 2 358 3 359 3 5 353 42 142 165 171 170 169 167 161 158 150 141 133 119 116 115 106 91 80 66 20 324 313 301 286 279 279 270 255 252 248 240 241 227 222 229 232 242 250 255 255 240 254 288 270 317 344 353
261 299 134 143 223 234 209 193 211 217 238 245 245 259 252 247 245 207 173 111 108 110 98 100 102 100 88 67 55 48 48 40 34 28 25 22 14 18 18 13 13 12 10 4 3 10 15 29 25 8 59 114 154 164 157 156 151 141 140 124 121 124 110 100 111 123 109 91 77 32 359 20 31 333 312 307 295 265 258 254 232 243 253 239 252 262 266 272 276 271 260 281 286 252 298 333 327
13 16 131 215 227 228 229 236 236 222 229 217 222 245 240 212 201 203 154 125 127 126 123 119 121 101 77 62 48 40 39 32 23 19 22 27 23 23 23 19 16 14 10 8 13 20 33 44 35 40 101 111 134 151 145 145 137 129 137 128 121 115 100 94 95 97 92 85 81 81 57 43 60 352 337 330 324 289 275 269 227 235 295 268 298 312 297 300 309 286 276 282 261 252 293 323 318
32 344 277 261 252 241 225 240 246 229 229 209 226 251 206 155 212 212 137 140 147 146 146 127 124 88 62 52 47 35 33 29 15 14 18 23 26 21 22 20 14 12 14 21 28 30 41 42 37 65 105 124 136 136 135 142 135 121 119 118 119 111 101 100 92 86 83 81 81 89 102 104 130 312 354 351 338 330 335 346 134 189 254 77 62 33 345 306 304 285 282 281 267 268 295 312 310
351 314 284 254 242 238 220 232 239 223 229 207 226 250 162 160 224 189 129 147 164 165 154 140 145 107 84 69 62 43 37 33 17 20 23 23 22 19 21 18 10 11 22 33 36 37 44 46 46 63 85 119 135 125 120 125 121 113 107 106 110 107 105 103 91 82 77 78 82 81 82 87 100 109 77 50 24 17 28 35 48 59 75 65 341 339 316 298 311 300 285 283 277 278 290 305 308
304 290 285 269 248 239 214 206 208 211 204 173 208 235 199 197 196 128 131 153 167 180 175 161 160 135 130 112 105 89 57 43 39 33 27 26 23 25 27 22 14 14 29 41 45 53 56 54 67 80 87 106 120 118 113 112 112 111 105 102 101 99 98 96 88 80 76 81 84 79 76 72 79 81 74 69 60 58 58 53 53 51 48 36 1 352 334 319 329 327 316 307 297 294 296 303 310
276 247 268 291 270 233 179 160 172 197 165 158 205 257 218 188 160 127 140 162 174 192 192 179 171 153 149 124 126 106 79 54 53 45 29 29 28 31 29 24 22 24 44 53 54 63 65 61 81 95 95 101 109 115 115 109 109 109 104 102 99 96 93 91 90 87 87 89 87 84 83 79 82 82 75 73 71 69 67 59 57 50 41 38 28 25 24 1 343 334 328 319 311 303 298 300 309
255 249 235 255 271 198 142 152 181 188 156 173 211 271 235 158 144 138 149 172 185 202 194 183 182 160 158 144 151 127 101 76 61 54 36 36 34 33 30 25 34 53 66 63 60 67 74 77 89 101 105 104 105 111 113 107 106 107 104 103 101 98 97 96 96 95 94 92 90 89 87 85 88 93 89 82 76 73 69 62 59 56 54 55 50 48 51 42 25 7 343 330 337 331 315 304 312
226 254 247 224 242 178 147 157 192 194 152 182 208 267 236 152 153 143 147 183 194 213 203 181 188 171 173 171 159 154 126 109 84 61 40 39 36 33 34 32 54 82 76 69 69 78 88 90 96 105 110 111 110 111 112 111 111 110 108 106 103 102 102 101 97 94 93 91 91 89 87 86 85 88 90 87 86 83 74 64 60 61 61 61 59 56 51 49 49 46 45 44 17 353 350 336 315
215 231 260 246 239 234 171 154 188 205 160 188 206 257 289 148 154 145 149 186 195 214 211 187 192 182 181 182 167 172 153 142 122 64 37 37 37 32 37 42 74 88 77 75 81 87 96 100 104 109 110 111 111 110 111 112 112 111 110 108 106 105 103 99 94 91 92 90 90 89 87 87 84 80 78 77 79 80 78 72 68 69 68 66 65 60 56 51 44 39 40 50 54 21 5 8 344
223 212 249 262 252 253 239 158 154 176 199 219 214 240 272 160 150 160 165 181 197 209 209 196 193 191 186 182 177 184 174 155 125 62 35 31 36 36 39 50 80 88 77 81 89 94 99 102 103 105 110 114 113 111 111 110 110 109 106 105 105 104 100 96 93 91 91 89 88 88 88 88 86 82 77 74 73 72 73 71 68 69 67 67 64 59 57 53 48 43 36 35 39 36 23 12 359
271 245 251 265 248 240 253 228 153 177 206 242 237 239 257 200 156 168 171 178 204 208 202 199 196 194 187 191 191 181 178 152 92 51 34 31 36 40 43 50 70 84 78 75 86 97 100 100 99 95 100 107 108 107 106 105 106 105 103 102 101 98 96 93 91 89 88 87 86 85 86 86 85 84 80 77 73 69 69 65 61 60 58 59 56 51 46 42 41 38 35 29 25 27 23 12 359
296 289 284 281 267 254 260 173 127 190 229 247 252 253 260 238 176 170 172 179 202 205 192 196 202 199 193 196 194 178 180 134 79 51 37 39 40 44 52 54 63 80 77 73 89 98 98 101 103 97 89 94 98 96 96 98 99 99 95 92 92 90 90 90 88 87 86 85 84 83 82 81 81 83 81 79 75 71 69 65 60 55 54 55 52 47 40 36 33 27 27 26 22 22 20 13 2
296 284 277 270 267 269 269 132 117 143 252 254 257 258 262 260 223 175 168 177 195 202 196 198 200 193 198 194 184 179 161 105 84 75 60 57 54 58 66 65 73 79 72 78 98 102 99 101 104 101 95 94 93 90 92 93 91 90 85 81 82 83 85 87 87 87 86 85 85 83 81 79 79 79 79 80 76 73 71 70 67 59 55 55 53 50 44 42 40 34 30 26 26 25 20 15 8
264 267 266 262 255 264 266 138 127 142 243 262 264 263 258 263 254 179 161 182 197 204 201 202 198 184 191 187 178 170 136 115 119 110 91 87 78 78 84 81 82 80 76 83 96 103 105 108 109 107 109 110 107 105 107 103 96 95 92 87 86 84 84 86 86 86 87 87 86 84 82 80 79 78 79 81 78 75 72 70 70 65 60 59 58 57 53 50 46 42 36 26 25 29 27 19 15
255 253 254 259 255 265 258 151 138 162 240 269 271 270 263 264 254 178 173 196 190 191 191 187 187 182 186 183 173 164 145 139 139 127 119 118 106 100 98 91 88 84 85 91 96 102 106 111 115 116 118 121 121 119 117 112 108 107 104 99 97 93 89 89 88 89 89 89 87 86 85 83 82 81 80 80 79 77 74 71 70 67 64 61 60 58 55 53 49 44 37 29 25 27 32 25 20
241 238 244 252 246 260 257 171 140 183 231 279 292 282 270 267 245 173 177 193 158 148 158 155 178 183 180 172 167 165 158 150 144 138 136 135 128 118 107 97 96 91 88 97 102 100 101 106 110 113 116 120 123 124 122 117 114 111 106 102 99 95 91 90 89 87 87 86 85 85 84 83 82 81 80 78 78 76 74 72 69 67 63 58 56 54 53 52 50 46 40 35 32 25 25 25 25
231 228 233 251 248 248 257 256 74 236 233 241 269 281 271 255 235 197 158 162 165 166 173 177 186 184 167 156 160 162 156 152 149 145 144 144 138 123 112 105 100 96 99 110 110 99 97 104 107 109 110 112 115 117 118 116 113 110 106 102 98 93 88 84 82 79 79 81 82 82 81 81 80 79 77 75 74 73 72 71 69 67 63 59 57 53 51 51 51 49 43 38 37 31 23 23 26
243 224 222 242 259 262 267 281 317 284 260 196 214 272 279 244 228 200 149 173 194 180 187 191 184 181 177 172 171 163 150 147 147 144 143 141 134 124 113 107 101 98 109 119 117 110 108 111 113 115 114 113 114 113 113 112 110 108 108 107 103 98 89 80 79 79 77 78 81 82 81 80 78 76 75 73 72 70 69 68 67 66 64 61 60 57 54 52 51 51 47 41 38 37 33 26 24
259 236 213 231 258 267 266 269 257 273 285 145 183 260 277 276 227 168 148 194 195 183 198 195 181 180 179 176 172 165 159 152 143 139 140 134 130 128 115 104 102 101 113 122 122 121 121 121 122 123 123 122 120 117 114 113 115 116 114 107 101 101 96 90 89 89 87 85 83 83 82 80 78 76 74 71 70 68 67 66 64 64 63 62 59 58 57 54 51 50 50 47 40 39 38 31 21
256 28 107 214 246 258 252 251 240 259 291 213 192 236 272 277 241 150 160 195 193 195 206 195 184 181 177 173 167 164 163 157 150 143 141 133 125 123 115 104 100 103 117 125 125 125 128 129 130 130 129 128 126 123 120 122 124 121 116 107 100 99 100 100 98 94 93 90 86 82 80 79 77 75 73 70 68 67 65 64 63 62 62 61 59 57 55 53 51 48 47 46 43 40 38 34 23
248 82 76 140 238 262 248 242 243 256 279 252 205 191 250 267 219 150 173 201 209 206 198 193 188 180 176 173 166 162 157 154 154 147 138 131 120 113 113 110 105 113 126 131 132 132 133 134 134 133 130 128 128 127 125 126 125 121 116 111 106 102 102 103 100 97 93 90 87 83 80 77 74 73 71 70 67 65 64 62 61 61 60 60 59 58 56 53 50 47 45 43 42 40 36 33 25
145 120 101 91 109 235 220 237 251 248 253 254 222 187 224 271 231 169 177 214 226 205 186 187 183 178 177 173 166 162 156 152 151 144 137 132 125 118 120 120 120 128 132 132 133 133 134 134 135 133 129 127 128 128 128 126 124 121 117 114 112 108 107 106 101 97 93 90 87 84 81 77 74 72 69 68 66 63 61 60 59 58 57 58 56 55 54 53 51 48 46 44 42 41 37 34 26
141 146 125 123 159 157 194 231 242 255 252 245 225 204 214 270 256 193 183 207 215 185 169 177 176 175 177 173 169 164 159 156 152 145 139 132 128 132 137 134 133 134 131 128 127 129 129 131 135 134 130 130 129 130 130 127 125 123 119 116 114 112 111 108 104 100 95 92 88 84 82 78 75 73 70 69 67 64 61 59 58 56 55 55 53 51 50 51 49 44 44 41 38 38 37 35 27
161 172 167 171 184 171 211 218 198 248 256 232 213 207 209 232 252 191 137 131 179 172 167 173 174 175 175 173 171 165 161 160 155 150 146 145 146 153 157 148 140 136 131 127 127 129 129 131 134 133 132 133 133 133 132 129 127 124 122 118 114 112 111 109 106 103 100 96 92 89 86 80 76 74 71 68 66 64 62 60 58 56 54 52 51 49 46 47 47 41 39 37 34 31 30 31 22
195 187 181 196 210 198 219 214 202 236 246 111 95 183 214 236 249 240 174 127 152 165 169 173 171 173 173 172 169 163 160 160 159 159 156 158 164 167 168 158 150 144 135 132 132 133 133 134 136 135 134 136 136 135 133 131 129 127 125 122 117 117 115 112 107 104 102 99 97 95 91 86 79 74 70 67 65 63 60 59 58 57 55 53 50 48 44 42 44 40 34 34 33 25 24 27 17
194 190 183 197 211 223 231 220 221 235 217 91 103 165 234 254 253 242 213 125 112 104 144 170 169 170 171 168 163 157 157 162 163 163 162 167 171 172 170 163 158 152 145 143 141 139 137 138 139 138 137 138 138 136 135 134 132 131 130 126 123 122 118 113 109 108 108 106 104 100 93 89 83 76 71 65 61 58 55 53 52 51 49 47 44 41 41 37 38 40 30 27 29 20 18 22 14
195 197 197 209 214 231 239 226 237 240 140 127 156 172 217 216 175 207 119 94 92 78 98 158 163 164 162 158 156 154 158 165 165 165 168 172 173 171 170 167 163 159 154 150 146 143 142 143 145 143 141 141 142 141 141 139 136 135 133 129 126 125 121 118 116 116 115 111 106 101 95 93 86 75 66 59 53 49 46 41 39 38 35 35 32 30 31 28 29 32 23 19 21 13 12 15 10
193 198 210 222 233 249 260 281 277 351 1 204 187 220 246 195 116 106 112 117 129 117 125 154 160 160 156 157 160 160 164 168 167 169 172 173 172 172 171 170 166 162 159 156 152 150 148 148 148 147 146 147 147 146 144 142 141 139 137 134 131 130 127 126 124 120 114 107 101 97 94 89 83 71 60 55 49 44 41 37 34 32 29 28 24 22 22 20 21 23 16 13 12 7 8 9 2
171 192 207 206 336 297 259 222 104 78 277 243 175 220 259 224 192 152 145 156 148 145 159 163 163 162 161 165 166 167 171 171 171 173 173 172 172 174 174 172 169 166 163 161 158 156 154 154 153 151 150 150 150 150 149 147 145 142 140 138 136 134 131 128 123 116 109 103 97 92 87 82 76 66 57 52 46 41 38 36 33 29 26 24 21 19 17 15 18 19 13 10 4 1 5 5 357
152 193 189 121 34 321 266 251 225 217 256 250 182 214 225 209 213 151 154 177 170 168 171 168 168 168 171 173 170 172 173 170 171 173 174 174 174 175 175 174 171 169 167 165 163 160 159 158 158 157 155 154 155 154 153 151 147 145 143 143 140 136 132 125 118 111 105 101 96 90 84 78 71 61 54 49 44 40 35 32 31 26 23 20 17 16 14 14 16 15 12 8 358 356 2 3 355
200 245 169 139 222 224 200 228 249 232 244 258 217 217 219 214 206 156 178 194 181 173 172 175 178 177 179 178 172 173 172 170 174 176 176 176 177 177 175 173 172 171 171 169 166 164 162 161 161 160 159 159 160 159 156 153 151 151 150 148 144 137 131 123 115 110 106 101 96 91 83 75 69 60 54 49 43 38 34 30 28 24 21 19 16 14 13 13 14 11 8 2 354 354 359 359 352
316 284 198 183 250 229 203 211 238 239 244 261 239 215 217 219 201 178 187 193 178 171 175 185 186 182 183 179 175 175 176 176 178 178 179 177 177 178 175 173 171 172 173 172 171 168 164 163 162 162 163 164 164 162 159 158 158 158 156 152 147 139 132 124 117 113 108 101 94 90 82 74 71 62 53 48 42 37 32 29 26 22 19 15 13 12 11 11 11 7 2 356 353 354 357 353 347
186 202 200 193 187 224 269 236 228 244 253 256 256 255 238 192 191 190 189 185 174 171 177 186 187 185 185 181 179 179 179 179 178 178 178 174 174 174 173 173 172 172 173 173 174 171 166 166 166 167 169 168 167 165 163 164 165 164 161 156 150 143 135 129 123 116 109 102 96 92 84 74 68 58 49 42 37 31 27 23 19 16 13 11 10 8 7 8 6 3 358 353 351 351 352 349 344
194 200 200 198 192 184 224 229 211 219 254 255 267 275 266 106 57 191 165 167 170 172 175 178 183 185 186 185 184 182 179 179 178 175 171 169 170 170 171 173 172 172 172 173 175 173 169 170 170 172 174 172 171 170 169 171 171 168 165 161 154 148 142 136 130 121 113 109 104 96 83 70 61 51 43 34 26 21 18 16 13 11 9 7 6 5 4 3 360 357 354 350 347 346 347 346 343